Regional Weather Roundup
Issued by NWS Kansas City/Pleasant Hill, MO

Home | Current Version | Previous Version | Text Only | Print | Product List | Glossary On
Versions: 1 2 3 4 5 6 7 8 9 10 11 12 13 14 15 16 17 18 19 20 21 22 23 24 25 26 27 28 29 30 31 32 33 34 35 36 37 38 39 40 41 42 43 44 45 46 47 48 49 50
000
ASUS43 KEAX 311511
RWREAX

WEATHER ROUNDUP FOR EASTERN KANSAS AND NORTHWEST MISSOURI
NATIONAL WEATHER SERVICE KANSAS CITY/PLEASANT HILL MO
1000 AM CDT FRI OCT 31 2014

KSZ040-057-103>105-MOZ028-029-037-043-311600-
...KANSAS CITY METROPOLITAN AREA...

CITY           SKY/WX    TMP DP  RH WIND       PRES   REMARKS
K.C. INTL      SUNNY     35  20  54 N20G25    30.49R WCI  24
K.C. DOWNTOWN  SUNNY     37  20  50 N16G24    30.50R WCI  28
LEES SUMMIT    SUNNY     36  21  54 N21G26    30.48R WCI  25
OLATHE - IXD   SUNNY     35  19  52 N26G33    30.48R WCI  22
OLATHE - OJC   SUNNY     36  20  52 N18G26    30.47R WCI  26
LAWRENCE       FLURRIES  37  21  52 N15G23    30.51R WCI  28

$$

MOZ001>008-011>017-020>025-030>033-038>040-044>046-053-054-311600-
...NORTHERN AND CENTRAL MISSOURI...

CITY           SKY/WX    TMP DP  RH WIND       PRES   REMARKS
ST. JOSEPH     SUNNY     35  18  49 N14       30.53R WCI  26
MOSBY            N/A     36  19  51 N13G21    30.49S WCI  27
WHITEMAN AFB   SUNNY     39  23  54 N17G25    30.42R WCI  29
CLINTON        SUNNY     41  28  60 N22       30.43R WCI  31
SEDALIA        LGT RAIN  39  20  46 NW23G30   30.43R WCI  28
WARSAW         NOT AVBL
MARSHALL       SUNNY     39  21  48 N18G24    30.44S WCI  30
CHILLICOTHE      N/A     37  19  48 N12G20    30.48R WCI  29
MOBERLY        SUNNY     37  18  44 N16G23    30.40R WCI  28
KIRKSVILLE     SUNNY     35  20  54 N21G29    30.41R WCI  24

$$

MOZ041-047>049-056>058-063>065-088>090-097-311600-
...EASTERN AND SOUTHERN MISSOURI...

CITY           SKY/WX    TMP DP  RH WIND       PRES   REMARKS
ST. LOUIS INTL MOSUNNY   43  25  49 N21G33    30.26R WCI  34
SPIRIT OF STL  MOSUNNY   41  20  43 NW24G35   30.28R WCI  31
COLUMBIA       SUNNY     38  19  46 N21G31    30.37R WCI  28
JEFFERSON CITY SUNNY     40  19  43 N17G31    30.37R WCI  31
MEXICO         SUNNY     39  25  56 NW20G25   30.36R WCI  30
HANNIBAL       SUNNY     39  18  41 N12G24    30.36R WCI  32
ROLLA          MOSUNNY   40  29  64 NW22G29   30.29R WCI  30
LEBANON        MOSUNNY   43  28  56 N13G26    30.34R
OSAGE BEACH    MOSUNNY   41  25  52 N13G22    30.36R WCI  34
SPRINGFIELD    CLOUDY    44  33  65 N25G35    30.33R WCI  35
BRANSON        CLOUDY    48  37  66 N14       30.30R
NEVADA         MOSUNNY   41  28  60 N16G26    30.44R WCI  33
JOPLIN         PTSUNNY   42  33  70 N20G29    30.40R WCI  33
WEST PLAINS    CLOUDY    47  38  71 N12G20    30.24R

$$

IAZ060-094-KSZ022-034>040-054-083-096-NEZ052-066-093-311600-
...KANSAS...SOUTHEAST NEBRASKA AND IOWA...

CITY           SKY/WX    TMP DP  RH WIND       PRES   REMARKS
TOPEKA         SUNNY     37  21  52 N14G24    30.53R WCI  28
MANHATTAN      SUNNY     36  22  56 NE15G22   30.55R WCI  27
EMPORIA        SUNNY     36  23  59 N16G28    30.50R WCI  26
CHANUTE        FLURRIES  37  26  64 N24G32    30.46R WCI  26
WICHITA        MOSUNNY   40  27  59 N21G30    30.50R WCI  30
OMAHA          SUNNY     32  20  61 N15       30.59R WCI  22
LINCOLN        SUNNY     32  20  61 NE15      30.60R WCI  22
FALLS CITY     SUNNY     34  19  54 N18G24    30.54R WCI  23
LAMONI         SUNNY     33  18  53 N20G25    30.47R WCI  21
DES MOINES     SUNNY     33  18  53 N16       30.50R WCI  23

$$




USA.gov is the U.S. government's official web portal to all federal, state and local government web resources and services.